This demonstration page uses our WeatherBlox Daily Observations layout. Learn more.

Left ArrowRight Arrow

Hourly Observations for October 6, 2020

Temp ( °F °C ) Dew Point ( °F °C ) Humidity (%) Winds ( mph kmh ) Pressure ( in mb ) Visibility ( mi km ) Precip ( " mm )
12:15 am 00:15 Clear 54 12.2 42 5.7 65 65 NNW 3 6 30.05 1018 10 16 N/A
12:35 am 00:35 Clear 55 12.5 43 6.2 66 66 NNW 5 7 30.06 1018 10 16 N/A
12:55 am 00:55 Clear 53 11.6 43 6 69 69 NNW 5 7 30.07 1018 10 16 N/A
1:15 am 01:15 Clear 53 11.5 43 6 69 69 NNW 5 7 30.06 1018 10 16 N/A
1:30 am 01:30 Clear 51 10.7 43 6 73 73 NNW 3 6 30.07 1018 10 16 N/A
1:55 am 01:55 Clear 51 10.7 42 5.7 71 71 NNW 3 6 30.07 1018 10 16 N/A
2:15 am 02:15 Clear 49 9.3 41 5.1 75 75 N N/A 30.08 1019 10 16 N/A
2:35 am 02:35 Clear 48 8.9 42 5.3 78 78 NW 5 7 30.08 1019 10 16 N/A
2:55 am 02:55 Clear 49 9.2 42 5.3 77 77 WNW 3 6 30.08 1019 10 16 N/A
3:15 am 03:15 Clear 47 8.1 41 4.8 80 80 WNW 3 6 30.08 1019 10 16 N/A
3:35 am 03:35 Clear 46 8 40 4.7 80 80 NW 5 7 30.08 1019 10 16 N/A
3:55 am 03:55 Clear 47 8.5 41 5 79 79 N N/A 30.09 1019 10 16 N/A
4:15 am 04:15 Clear 47 8.4 41 5.1 80 80 WNW 6 9 30.10 1019 10 16 N/A
4:35 am 04:35 Clear 46 7.7 40 4.5 80 80 W 3 6 30.08 1019 10 16 N/A
4:55 am 04:55 Clear 46 7.5 40 4.5 81 81 W 6 9 30.10 1019 10 16 N/A
5:15 am 05:15 Clear 48 9.1 42 5.4 78 78 WNW 3 6 30.10 1019 10 16 N/A
5:35 am 05:35 Clear 48 8.9 42 5.3 78 78 WNW 3 6 30.10 1019 10 16 N/A
5:55 am 05:55 Clear 47 8.5 42 5.5 82 82 W 5 7 30.11 1020 10 16 N/A
6:15 am 06:15 Clear 47 8.3 42 5.5 83 83 W 6 9 30.12 1020 10 16 N/A
6:35 am 06:35 Clear 47 8.6 42 5.5 81 81 WNW 7 11 30.13 1020 10 16 N/A
6:55 am 06:55 Clear 47 8.2 41 5.2 82 82 WNW 6 9 30.11 1020 10 16 N/A
7:15 am 07:15 Clear 46 8 41 5.2 83 83 WNW 6 9 30.12 1020 10 16 N/A
7:35 am 07:35 Clear 46 7.7 41 5 83 83 NW 3 6 30.12 1020 10 16 N/A
7:55 am 07:55 Sunny 45 7.3 41 5 85 85 N N/A 30.15 1021 10 16 N/A
8:15 am 08:15 Sunny 46 8 42 5.3 83 83 W 3 6 30.14 1021 10 16 N/A
8:35 am 08:35 Sunny 49 9.6 44 6.8 83 83 N N/A 30.13 1020 10 16 N/A
8:55 am 08:55 Sunny 53 11.6 45 7 74 74 WNW 5 7 30.11 1020 10 16 N/A
9:15 am 09:15 Sunny 55 12.8 46 7.5 70 70 WNW 5 7 30.11 1020 10 16 N/A
9:35 am 09:35 Sunny 58 14.2 47 8.1 67 67 WNW 3 6 30.10 1019 10 16 N/A
9:55 am 09:55 Sunny 60 15.8 47 8.3 61 61 WNW 6 9 30.08 1019 10 16 N/A
10:15 am 10:15 Sunny 63 17.3 48 8.7 57 57 W 3 6 30.07 1018 10 16 N/A
10:35 am 10:35 Sunny 66 19.1 48 8.8 51 51 WSW 5 7 30.04 1017 10 16 N/A
10:55 am 10:55 Sunny 70 21.2 47 8.4 44 44 SW 8 13 30.02 1016 10 16 N/A
11:15 am 11:15 Sunny 72 22 46 7.6 40 40 WSW 8 13 30.02 1017 10 16 N/A
11:35 am 11:35 Sunny 72 22.3 44 6.9 37 37 WSW 12 19 30.00 1016 10 16 N/A
11:55 am 11:55 Sunny 73 22.6 45 7 37 37 SW 12 19 30.01 1016 10 16 N/A
12:15 pm 12:15 Sunny 74 23.3 45 7 35 35 SW 12 19 29.99 1016 10 16 N/A
12:55 pm 12:55 Sunny 76 24.3 44 6.7 32 32 SW 10 17 29.96 1015 10 16 N/A
1:15 pm 13:15 Sunny 77 24.9 44 6.6 31 31 SW 12 19 29.94 1014 10 16 N/A
1:35 pm 13:35 Sunny 79 26 44 6.5 29 29 SW 14 22 29.93 1013 10 16 N/A
1:55 pm 13:55 Sunny 79 26.3 43 6 27 27 SW 12 19 29.92 1013 10 16 N/A
2:15 pm 14:15 Sunny 81 27.2 42 5.7 25 25 SW 13 20 29.89 1012 10 16 N/A
2:35 pm 14:35 Sunny 82 27.5 42 5.5 25 25 SW 17 28 29.88 1012 10 16 N/A
2:55 pm 14:55 Sunny 83 28.2 42 5.5 24 24 SW 10 17 29.86 1011 10 16 N/A
3:15 pm 15:15 Sunny 83 28.6 42 5.6 23 23 SW 13 20 29.85 1011 10 16 N/A
3:35 pm 15:35 Sunny 84 29.1 41 5 22 22 WSW 10 17 29.83 1010 10 16 N/A
3:55 pm 15:55 Sunny 85 29.5 40 4.6 20 20 SW 10 17 29.83 1010 10 16 N/A
4:15 pm 16:15 Sunny 85 29.6 39 4.1 20 20 WSW 9 15 29.82 1010 10 16 N/A
4:35 pm 16:35 Sunny 86 30.1 38 3.2 18 18 WSW 14 22 29.82 1010 10 16 N/A
4:55 pm 16:55 Sunny 86 30.1 37 3 18 18 WSW 13 20 29.81 1009 10 16 N/A
5:15 pm 17:15 Sunny 86 30.2 37 3 18 18 WSW 10 17 29.81 1009 10 16 N/A
5:35 pm 17:35 Sunny 86 30.1 37 2.9 18 18 WSW 10 17 29.79 1009 10 16 N/A
5:55 pm 17:55 Sunny 86 29.8 37 2.8 18 18 SW 9 15 29.78 1008 10 16 N/A
6:15 pm 18:15 Sunny 85 29.2 38 3.2 19 19 SW 7 11 29.77 1008 10 16 N/A
6:35 pm 18:35 Sunny 82 28 39 3.7 21 21 SSW 6 9 29.78 1009 10 16 N/A
6:55 pm 18:55 Sunny 79 26.2 39 4 24 24 SSW 6 9 29.80 1009 10 16 N/A
7:15 pm 19:15 Clear 76 24.6 39 3.7 26 26 SSW 5 7 29.81 1009 10 16 N/A
7:35 pm 19:35 Clear 73 22.7 39 3.7 29 29 SSW 5 7 29.84 1010 10 16 N/A
7:55 pm 19:55 Clear 71 21.5 39 4 32 32 SSW 5 7 29.85 1011 10 16 N/A
8:15 pm 20:15 Clear 70 21.2 39 4 32 32 SW 5 7 29.86 1011 10 16 N/A
8:35 pm 20:35 Clear 68 20.2 39 3.8 34 34 SSW 6 9 29.86 1011 10 16 N/A
8:55 pm 20:55 Clear 68 20.2 39 3.7 34 34 SW 5 7 29.86 1011 10 16 N/A
9:15 pm 21:15 Clear 67 19.5 38 3.6 35 35 SSW 7 11 29.87 1012 10 16 N/A
9:35 pm 21:35 Clear 68 19.9 39 3.7 34 34 SSW 7 11 29.86 1011 10 16 N/A
9:55 pm 21:55 Clear 67 19.5 39 3.7 35 35 SSW 7 11 29.86 1011 10 16 N/A
10:15 pm 22:15 Clear 66 18.9 38 3.6 36 36 SSW 8 13 29.88 1012 10 16 N/A
10:35 pm 22:35 Clear 66 18.9 38 3.6 36 36 SSW 6 9 29.88 1012 10 16 N/A
10:55 pm 22:55 Clear 64 18 39 3.7 39 39 SSW 7 11 29.88 1012 10 16 N/A
11:15 pm 23:15 Clear 65 18.1 38 3.5 38 38 SSW 7 11 29.88 1012 10 16 N/A
11:35 pm 23:35 Clear 64 18 38 3.5 38 38 SSW 7 11 29.88 1012 10 16 N/A
11:55 pm 23:55 Clear 64 17.5 38 3.6 40 40 SSW 6 9 29.88 1012 10 16 N/A

Powered by AerisWeather